Location: Ellerstadt
(49.4644°N, 8.2615°E)
Time: 02:48:39
(UTC+00:00)

Explorer 7 - All Passes

Search period start: 13 June 2021 00:00
Search period end: 23 June 2021 00:00
Orbit: 484 x 677 km, 50.3° (Epoch: 12 June)

Date Brightness Start Highest point End Pass type
(mag) Time Alt. Az. Time Alt. Az. Time Alt. Az.
13 Jun - 01:07:01 10° W 01:11:45 86° N 01:16:12 10° E visible
13 Jun - 02:47:50 10° W 02:52:25 88° N 02:56:42 10° E daylight
13 Jun - 04:28:37 10° W 04:32:44 39° SSW 04:36:35 10° SE daylight
13 Jun - 21:52:06 10° S 21:55:34 20° SE 21:58:57 10° E visible
13 Jun - 23:30:51 10° SW 23:35:34 60° SSE 23:40:05 10° ENE visible
14 Jun - 01:11:25 10° W 01:16:08 80° N 01:20:34 10° E visible
14 Jun - 02:52:12 10° WNW 02:56:47 80° SSW 03:01:03 10° ESE daylight
14 Jun - 04:33:08 10° W 04:36:55 28° SW 04:40:29 10° SSE daylight
14 Jun - 21:55:37 10° SSW 21:59:42 27° SE 22:03:41 10° E visible
14 Jun - 23:35:05 10° WSW 23:39:53 74° SSE 23:44:28 10° ENE visible
15 Jun - 01:15:49 10° W 01:20:32 79° N 01:24:58 10° E visible
15 Jun - 02:56:36 10° WNW 03:01:07 65° SSW 03:05:20 10° ESE daylight
15 Jun - 04:37:49 10° W 04:41:02 20° SW 04:44:06 10° S daylight
15 Jun - 21:59:24 10° SW 22:03:52 37° SSE 22:08:13 10° E visible
15 Jun - 23:39:25 10° WSW 23:44:14 87° S 23:48:49 10° ENE visible
16 Jun - 01:20:13 10° W 01:24:56 83° N 01:29:22 10° E visible
16 Jun - 03:00:59 10° WNW 03:05:23 50° SSW 03:09:31 10° SE daylight
16 Jun - 04:42:53 10° WSW 04:45:05 14° SW 04:47:13 10° SSW daylight
16 Jun - 20:25:30 10° S 20:28:16 15° SE 20:31:01 10° E visible
16 Jun - 22:03:25 10° SW 22:08:07 50° SSE 22:12:39 10° ENE visible
16 Jun - 23:43:47 10° W 23:48:36 84° N 23:53:12 10° E visible
17 Jun - 01:24:36 10° W 01:29:19 89° SSW 01:33:44 10° ESE visible
17 Jun - 03:05:25 10° W 03:09:37 37° SSW 03:13:34 10° SE daylight
17 Jun - 20:28:38 10° S 20:32:21 22° SE 20:36:00 10° E visible
17 Jun - 22:07:35 10° WSW 22:12:24 64° SSE 22:17:03 10° ENE visible
17 Jun - 23:48:11 10° W 23:53:01 80° N 23:57:35 10° E visible
18 Jun - 01:28:59 10° WNW 01:33:40 77° SSW 01:38:04 10° ESE visible
18 Jun - 03:09:57 10° W 03:13:46 27° SW 03:17:24 10° SSE daylight
18 Jun - 20:32:14 10° SSW 20:36:29 30° SE 20:40:39 10° E visible
18 Jun - 22:11:50 10° WSW 22:16:43 78° SSE 22:21:25 10° ENE visible
18 Jun - 23:52:35 10° W 23:57:24 80° N 00:01:59 10° E visible
19 Jun - 01:33:21 10° WNW 01:37:59 63° SSW 01:42:20 10° ESE visible
19 Jun - 03:14:40 10° W 03:17:52 19° SW 03:20:57 10° S daylight
19 Jun - 18:59:35 10° SSE 19:01:00 11° SE 19:02:25 10° ESE daylight
19 Jun - 20:36:06 10° SW 20:40:40 41° SSE 20:45:10 10° E visible
19 Jun - 22:16:10 10° WSW 22:21:05 89° SSE 22:25:47 10° E visible
19 Jun - 23:56:59 10° W 00:01:48 84° N 00:06:22 10° E visible
20 Jun - 01:37:45 10° WNW 01:42:15 48° SSW 01:46:29 10° SE visible
20 Jun - 03:19:50 10° WSW 03:21:55 13° SW 03:23:56 10° SSW daylight
20 Jun - 19:01:56 10° S 19:05:01 17° SE 19:08:06 10° E daylight
20 Jun - 20:40:08 10° SW 20:44:54 53° SSE 20:49:35 10° ENE visible
20 Jun - 22:20:34 10° W 22:25:27 83° N 22:30:10 10° E visible
21 Jun - 00:01:22 10° WNW 00:06:11 87° S 00:10:44 10° ESE visible
21 Jun - 01:42:12 10° W 01:46:27 36° SW 01:50:29 10° SSE visible
21 Jun - 19:05:14 10° SSW 19:09:06 24° SE 19:12:58 10° E daylight
21 Jun - 20:44:20 10° WSW 20:49:12 68° SSE 20:53:58 10° ENE visible
21 Jun - 22:24:58 10° W 22:29:51 80° N 22:34:33 10° E visible
22 Jun - 00:05:44 10° WNW 00:10:31 74° SSW 00:15:03 10° ESE visible
22 Jun - 01:46:45 10° W 01:50:37 26° SW 01:54:17 10° SSE visible
22 Jun - 19:08:53 10° SSW 19:13:15 33° SE 19:17:34 10° E daylight
22 Jun - 20:48:36 10° WSW 20:53:31 81° SSE 20:58:20 10° ENE visible
22 Jun - 22:29:21 10° W 22:34:14 81° N 22:38:56 10° E visible
